Погода в Ангоше

Мозамбик     16°13′51″S   39°54′13″E
темп.,
°C
ветер,
м/с
пор.,
м/с
влажн.,
%
обл.,
%
осадки,
мм/ч
давл.,
гПа
погр.,
м
13 апреля, вт
вт1323:00+27ююз5674100 0.0 1016673
02:00+27ююз577477 0.0 1014723
05:00+26ююз5779100 0.0 1015748
08:00+28ююз7873100 0.2 10161062
11:00+28ю7770100 0.1 10161076
14:00+28ююз787098 0.2 10131145
17:00+27ююз687284 0.0 1014887
20:00+27ююз687168 0.0 1016868
14 апреля, ср
ср1423:00+27ююз687158 0.0 1015897
02:00+27ююз5769100 0.0 1014848
05:00+26ююз4671100 0.0 1014742
08:00+28ю4667100 0.0 10151105
11:00+28ююв5566100 0.1 1014941
14:00+28ю56665 0.1 1013952
17:00+26ю577654 0.4 1013626
20:00+25ююз578594 5.4 1015423
15 апреля, чт
чт1523:00+25юз468087 2.8 1015582
02:00+25юз578136 2.8 1013583
05:00+24юз467857 0.0 1014459
08:00+26юз467467 0.0 1015645
11:00+27ююз677618 0.8 1014915
14:00+27ююз7775100 2.3 1012859
17:00+26ююз78755 1.1 1012775
20:00+26ююз6776100 1.2 1014701
16 апреля, пт
пт1623:00+25юз56804 0.6 1014513
02:00+24зюз57855 1.4 1012395
05:00+23зюз578511 0.2 1013364
08:00+25зюз56807 0.4 1015427
11:00+27ююз56779 0.8 1014774
14:00+27ююз67755 2.6 1012957
17:00+26ююз79786 0.4 1013806
20:00+26ююз8107622 1.4 1016964
17 апреля, сб
сб1723:00+25ю9118121 2.1 1016842
02:00+26ю9116970 3.4 10141129
05:00+26ю10116750 0.3 10161347
08:00+25ю9117717 1.1 10181044
11:00+26ю10127478 1.9 10181291
14:00+25ю11127399 3.4 10161262
17:00+25ю121368100 0.4 10181380
20:00+25ю11126650 0.7 10201364